CYGFM03 (41891 NORAD) Tracking and Keplerian Element Data

This shows tracking and keplerian element data for the satellite.

Feedback or suggestion? Click here.




ElementValue
Catalog41891
NameCYGFM03
Epoch Orbit8787
Epoch Day198.91610312
Epoch Year2018
RAAN86.3192
Inclination34.9561
Eccentricity0.0014159
Argument of Perigee273.7976
Mean Anonmoly86.1117
Mean Motion15.14649622
Decay Rate2.47E-06
L11 41891U 16078H 18198.91610312 .00000247 00000-0 14776-4 0 9997
L22 41891 34.9561 86.3192 0014159 273.7976 86.1117 15.14649622 87877

Live tracking and technical data element details for CYGFM03 (NORAD 41891). CYGFM03 can be tracked NOW for your location showing map with azimuth and elevation plus other details from your city location.

Track the satellite on the map from your city or location and see movement details for azimuth, elevation, latitude, longitude, range, height, and movement on the map or in text.







IsCatalogInMostPopularTable: catalog: 41891, numindb: 77
Update: records affected: 1



GetName: 41891 CYGFM03

Hit Count: updated at: Thu, 19 Jul 2018 21:28:07 GMT